Location: Lynch Observatory
(39.9540°N, 75.1861°W)
Time: 14:57:45
(UTC-05:00)

BlueWalker 3 - Visible Passes

Search period start: 03 December 2023 00:00
Search period end: 13 December 2023 00:00
Orbit: 489 x 503 km, 53.2° (Epoch: 03 December)

Date Brightness Start Highest point End Pass type
(mag) Time Alt. Az. Time Alt. Az. Time Alt. Az.
03 Dec 3.1 04:59:19 35° NNE 04:59:28 35° NNE 05:02:59 10° E visible
04 Dec 3.7 04:37:50 29° ENE 04:37:50 29° ENE 04:40:19 10° E visible
04 Dec 2.9 06:12:25 14° WNW 06:15:08 32° SW 06:18:32 10° SSE visible
05 Dec 4.7 04:16:26 18° E 04:16:26 18° E 04:17:38 10° E visible
05 Dec 2.8 05:51:00 24° W 05:52:27 32° SW 05:55:53 10° SSE visible
06 Dec 2.7 05:29:39 33° SW 05:29:46 33° SW 05:33:12 10° SSE visible
07 Dec 3.4 05:08:22 26° S 05:08:22 26° S 05:10:31 10° SSE visible
08 Dec 4.4 04:47:07 14° SSE 04:47:07 14° SSE 04:47:49 10° SSE visible
11 Dec 4.4 18:54:48 10° SSW 18:55:33 14° S 18:55:33 14° S visible
12 Dec 3.5 18:32:02 10° SSW 18:34:13 25° SSE 18:34:13 25° SSE visible
